FW8685 Weather Reports


time (UTC)temp
C
wind
direction
speed
KPH
gust
KPH
rain 1hr
cm
rain 24hr
cm
rain mn
cm
humidity
%
barometer
mb
20260508153522 21 223 12.9 29.0 0.00 0.00 0.00 55 1007.4
20260508153052 22 234 17.7 29.0 0.00 0.00 0.00 54 1007.4
20260508152521 22 209 12.9 29.0 0.00 0.00 0.00 56 1007.3
20260508152022 21 240 14.5 25.7 0.00 0.00 0.00 57 1007.3
20260508151538 21 234 12.9 25.7 0.00 0.00 0.00 59 1007.5
20260508151025 20 180 11.3 32.2 0.00 0.00 0.00 59 1007.6
20260508150522 20 232 16.1 32.2 0.00 0.00 0.00 58 1007.7
20260508150037 20 273 9.7 32.2 0.00 0.00 0.00 58 1007.7
20260508145521 20 242 17.7 32.2 0.00 0.00 0.00 58 1007.8
20260508145023 20 202 12.9 35.4 0.00 0.00 0.00 58 1007.8
20260508144537 20 267 17.7 35.4 0.00 0.00 0.00 58 1007.8
20260508144023 20 215 14.5 30.6 0.00 0.00 0.00 59 1007.8
20260508143524 20 263 11.3 35.4 0.00 0.00 0.00 60 1008.0
20260508143057 20 224 17.7 35.4 0.00 0.00 0.00 61 1008.1
20260508142522 19 204 16.1 30.6 0.00 0.00 0.00 61 1008.1
20260508142023 19 237 12.9 33.8 0.00 0.00 0.00 62 1008.0
20260508141540 19 224 14.5 37.0 0.00 0.00 0.00 63 1008.0
20260508141022 18 273 17.7 37.0 0.00 0.00 0.00 64 1008.0
20260508140522 18 225 12.9 35.4 0.00 0.00 0.00 66 1008.0
20260508140039 17 220 14.5 25.7 0.00 0.00 0.00 67 1008.2
20260508135523 17 257 11.3 24.1 0.00 0.00 0.00 67 1008.3
20260508135022 17 189 12.9 25.7 0.00 0.00 0.00 68 1008.1
20260508134539 17 245 9.7 25.7 0.00 0.00 0.00 69 1008.0
20260508134023 16 213 8.0 27.4 0.00 0.00 0.00 72 1008.0
20260508133522 16 207 14.5 27.4 0.00 0.00 0.00 72 1008.0
20260508133037 15 219 11.3 27.4 0.00 0.00 0.00 73 1008.0
20260508132522 15 200 12.9 27.4 0.00 0.00 0.00 75 1008.0
20260508132022 14 209 11.3 19.3 0.00 0.00 0.00 77 1007.9
20260508131537 13 204 9.7 20.9 0.00 0.00 0.00 79 1008.0
20260508131026 13 208 8.0 20.9 0.00 0.00 0.00 80 1008.1
20260508130522 12 221 8.0 16.1 0.00 0.00 0.00 80 1008.0
20260508130042 12 194 9.7 17.7 0.00 0.00 0.00 80 1007.8
20260508125522 12 188 8.0 17.7 0.00 0.00 0.00 81 1007.9
20260508125022 11 184 9.7 16.1 0.00 0.00 0.00 82 1007.9
20260508124537 11 180 8.0 16.1 0.00 0.00 0.00 83 1007.9
20260508124021 11 169 8.0 14.5 0.00 0.00 0.00 83 1008.0
20260508123521 11 174 8.0 12.9 0.00 0.00 0.00 83 1008.0
20260508123042 10 210 4.8 11.3 0.00 0.00 0.00 83 1008.0
20260508122547 10 186 6.4 12.9 0.00 0.00 0.00 83 1007.9
20260508122022 10 165 8.0 12.9 0.00 0.00 0.00 83 1007.8
20260508121537 10 173 6.4 11.3 0.00 0.00 0.00 83 1007.8
20260508121022 10 162 6.4 9.7 0.00 0.00 0.00 83 1007.8
20260508120524 10 191 6.4 11.3 0.00 0.00 0.00 82 1007.8
20260508120037 10 186 6.4 12.9 0.00 0.00 0.00 82 1007.8
20260508115522 10 180 8.0 12.9 0.00 0.00 0.00 82 1007.9
20260508115022 10 209 6.4 12.9 0.00 0.00 0.00 81 1007.9
20260508114537 10 178 6.4 16.1 0.00 0.00 0.00 81 1007.9
20260508114022 10 180 8.0 16.1 0.00 0.00 0.00 80 1007.9
20260508113522 10 181 8.0 12.9 0.00 0.00 0.00 79 1007.9
20260508113038 10 165 8.0 12.9 0.00 0.00 0.00 79 1007.8
20260508112524 10 190 8.0 12.9 0.00 0.00 0.00 78 1007.8
20260508112022 10 156 8.0 11.3 0.00 0.00 0.00 78 1007.8
20260508111541 10 161 8.0 11.3 0.00 0.00 0.00 78 1007.9
20260508111024 10 164 6.4 9.7 0.00 0.00 0.00 78 1007.9
20260508110521 10 164 6.4 9.7 0.00 0.00 0.00 78 1007.9
20260508110038 10 165 6.4 8.0 0.00 0.00 0.00 78 1007.9
20260508105521 10 175 4.8 9.7 0.00 0.00 0.00 78 1008.0
20260508105024 10 174 4.8 9.7 0.00 0.00 0.00 78 1008.0
20260508104538 10 180 6.4 11.3 0.00 0.00 0.00 78 1007.8
20260508104022 10 186 4.8 11.3 0.00 0.00 0.00 78 1007.7
20260508103522 10 190 6.4 12.9 0.00 0.00 0.00 78 1007.7
20260508103045 10 209 8.0 14.5 0.00 0.00 0.00 77 1007.8
20260508102523 10 210 6.4 14.5 0.00 0.00 0.00 77 1007.7
20260508102024 10 234 3.2 11.3 0.00 0.00 0.00 77 1007.8
20260508101536 10 178 6.4 11.3 0.00 0.00 0.00 76 1007.6
20260508101022 10 195 8.0 11.3 0.00 0.00 0.00 75 1007.5
20260508100523 10 175 6.4 9.7 0.00 0.00 0.00 75 1007.6
20260508100057 10 194 6.4 12.9 0.00 0.00 0.00 75 1007.6
20260508095527 10 178 6.4 12.9 0.00 0.00 0.00 74 1007.6
20260508095023 10 184 8.0 12.9 0.00 0.00 0.00 73 1007.6
20260508094542 10 191 8.0 12.9 0.00 0.00 0.00 72 1007.6
20260508094019 10 185 8.0 11.3 0.00 0.00 0.00 72 1007.6
20260508093523 10 165 6.4 9.7 0.00 0.00 0.00 72 1007.7
20260508093039 11 179 6.4 9.7 0.00 0.00 0.00 71 1007.8
20260508092520 11 171 4.8 11.3 0.00 0.00 0.00 71 1007.8
20260508092020 11 180 6.4 12.9 0.00 0.00 0.00 71 1007.6
20260508091552 11 190 6.4 12.9 0.00 0.00 0.00 70 1007.7
20260508091022 11 172 8.0 12.9 0.00 0.00 0.00 70 1007.6
20260508090521 11 177 8.0 14.5 0.00 0.00 0.00 70 1007.6
20260508090043 11 200 8.0 14.5 0.00 0.00 0.00 69 1007.6
20260508085520 11 182 6.4 12.9 0.00 0.00 0.00 69 1007.7
20260508085023 11 164 8.0 12.9 0.00 0.00 0.00 69 1007.7
20260508084539 11 215 8.0 11.3 0.00 0.00 0.00 69 1007.7
20260508084024 11 206 6.4 12.9 0.00 0.00 0.00 69 1007.6
20260508083523 11 217 6.4 16.1 0.00 0.00 0.00 69 1007.6
20260508083040 11 212 8.0 16.1 0.00 0.00 0.00 68 1007.7
20260508082521 11 217 8.0 14.5 0.00 0.00 0.00 68 1007.7
20260508082020 11 165 8.0 14.5 0.00 0.00 0.00 68 1007.7
20260508081553 11 202 8.0 12.9 0.00 0.00 0.00 67 1007.7
20260508081024 11 191 8.0 12.9 0.00 0.00 0.00 66 1007.6
20260508080522 12 181 6.4 11.3 0.00 0.00 0.00 66 1007.7
20260508080040 12 201 6.4 11.3 0.00 0.00 0.00 66 1007.7
20260508075521 12 203 4.8 12.9 0.00 0.00 0.00 66 1007.7
20260508075020 12 173 6.4 12.9 0.00 0.00 0.00 65 1007.9
20260508074538 12 191 6.4 12.9 0.00 0.00 0.00 65 1007.9
20260508074022 12 205 8.0 12.9 0.00 0.00 0.00 65 1007.9
20260508073523 12 241 8.0 12.9 0.00 0.00 0.00 65 1008.1
20260508073044 12 202 6.4 11.3 0.00 0.00 0.00 65 1008.0
20260508072520 12 192 6.4 12.9 0.00 0.00 0.00 65 1008.0
20260508072026 12 194 6.4 14.5 0.00 0.00 0.00 64 1008.0
20260508071539 12 198 6.4 14.5 0.00 0.00 0.00 64 1008.0
20260508071020 12 178 6.4 12.9 0.00 0.00 0.00 64 1008.0
20260508070523 12 180 6.4 14.5 0.00 0.00 0.00 64 1007.9
20260508070040 12 195 6.4 14.5 0.00 0.00 0.00 64 1008.0
20260508065520 12 171 8.0 17.7 0.00 0.00 0.00 64 1008.1
20260508065021 12 211 9.7 17.7 0.00 0.00 0.00 64 1008.0
20260508064540 12 188 9.7 17.7 0.00 0.00 0.00 64 1008.1
20260508064023 12 183 9.7 19.3 0.00 0.00 0.00 64 1008.0
20260508063523 12 184 11.3 19.3 0.00 0.00 0.00 65 1008.0
20260508063039 12 186 11.3 17.7 0.00 0.00 0.00 65 1008.0
20260508062522 12 196 9.7 17.7 0.00 0.00 0.00 64 1008.0
20260508062022 12 186 9.7 16.1 0.00 0.00 0.00 64 1008.0
20260508061538 12 163 9.7 19.3 0.00 0.00 0.00 64 1008.1
20260508061022 12 180 9.7 19.3 0.00 0.00 0.00 64 1008.1
20260508060524 12 192 8.0 16.1 0.00 0.00 0.00 63 1008.1
20260508060053 12 198 9.7 16.1 0.00 0.00 0.00 62 1008.1
20260508055522 12 196 9.7 16.1 0.00 0.00 0.00 62 1008.1
20260508055022 13 197 9.7 16.1 0.00 0.00 0.00 61 1008.1
20260508054610 13 166 9.7 16.1 0.00 0.00 0.00 61 1008.2
20260508054024 13 188 8.0 16.1 0.00 0.00 0.00 60 1008.3
20260508053522 13 171 9.7 16.1 0.00 0.00 0.00 60 1008.3
20260508053050 13 202 8.0 19.3 0.00 0.00 0.00 60 1008.3
20260508052522 13 188 11.3 19.3 0.00 0.00 0.00 60 1008.2
20260508052021 13 161 11.3 22.5 0.00 0.00 0.00 59 1008.4
20260508051541 13 185 12.9 22.5 0.00 0.00 0.00 59 1008.4
20260508051023 13 178 12.9 20.9 0.00 0.00 0.00 59 1008.3
20260508050523 13 200 12.9 20.9 0.00 0.00 0.00 58 1008.4
20260508050039 13 165 11.3 19.3 0.00 0.00 0.00 58 1008.3
20260508045522 13 190 11.3 19.3 0.00 0.00 0.00 58 1008.5
20260508045023 13 177 11.3 19.3 0.00 0.00 0.00 57 1008.5
20260508044537 14 200 11.3 22.5 0.00 0.00 0.00 57 1008.4
20260508044024 14 197 11.3 22.5 0.00 0.00 0.00 57 1008.6
20260508043522 14 172 11.3 25.7 0.00 0.00 0.00 57 1008.6
20260508043038 14 175 12.9 25.7 0.00 0.00 0.00 56 1008.6
20260508042522 14 167 12.9 22.5 0.00 0.00 0.00 56 1008.7
20260508042022 14 192 11.3 19.3 0.00 0.00 0.00 56 1008.7
20260508041545 15 161 11.3 20.9 0.00 0.00 0.00 55 1008.7
20260508041022 15 179 12.9 22.5 0.00 0.00 0.00 55 1008.7
20260508040522 15 186 11.3 24.1 0.00 0.00 0.00 54 1008.9
20260508040036 15 188 11.3 24.1 0.00 0.00 0.00 54 1008.9
20260508035522 15 206 12.9 22.5 0.00 0.00 0.00 54 1008.8
20260508035022 15 198 12.9 20.9 0.00 0.00 0.00 53 1009.0
20260508034547 15 178 11.3 19.3 0.00 0.00 0.00 52 1008.9
20260508034022 15 167 9.7 17.7 0.00 0.00 0.00 52 1009.0
20260508033522 16 186 11.3 22.5 0.00 0.00 0.00 51 1009.0
20260508033039 16 196 12.9 24.1 0.00 0.00 0.00 51 1008.9
20260508032523 16 179 12.9 27.4 0.00 0.00 0.00 51 1008.9
20260508032023 16 145 16.1 27.4 0.00 0.00 0.00 50 1009.0
20260508031537 16 162 14.5 24.1 0.00 0.00 0.00 50 1008.9
20260508031022 16 158 14.5 25.7 0.00 0.00 0.00 49 1008.9
20260508030522 16 176 14.5 25.7 0.00 0.00 0.00 48 1008.9
20260508030040 16 169 14.5 24.1 0.00 0.00 0.00 48 1009.0
20260508025523 17 200 12.9 24.1 0.00 0.00 0.00 47 1008.9
20260508025022 17 169 11.3 20.9 0.00 0.00 0.00 47 1009.0
20260508024544 17 179 12.9 22.5 0.00 0.00 0.00 46 1008.9
20260508024023 17 171 12.9 22.5 0.00 0.00 0.00 46 1008.8
20260508023523 17 209 12.9 25.7 0.00 0.00 0.00 45 1008.8
20260508023037 17 177 14.5 27.4 0.00 0.00 0.00 44 1008.7
20260508022526 17 190 14.5 27.4 0.00 0.00 0.00 44 1008.7
20260508022025 17 143 14.5 25.7 0.00 0.00 0.00 43 1008.6
20260508021537 17 187 16.1 30.6 0.00 0.00 0.00 43 1008.7
20260508021026 17 197 16.1 30.6 0.00 0.00 0.00 43 1008.5
20260508020522 17 158 16.1 30.6 0.00 0.00 0.00 42 1008.5
20260508020038 17 175 14.5 30.6 0.00 0.00 0.00 42 1008.4
20260508015522 17 180 11.3 19.3 0.00 0.00 0.00 42 1008.3
20260508015022 17 175 11.3 19.3 0.00 0.00 0.00 41 1008.2
20260508014539 18 161 11.3 20.9 0.00 0.00 0.00 41 1008.1
20260508014023 18 207 11.3 20.9 0.00 0.00 0.00 40 1008.1
20260508013522 18 169 11.3 19.3 0.00 0.00 0.00 40 1008.0
20260508013037 18 157 9.7 17.7 0.00 0.00 0.00 39 1008.0
20260508012525 19 162 9.7 17.7 0.00 0.00 0.00 38 1007.9
20260508012023 20 144 9.7 17.7 0.00 0.00 0.00 38 1008.0
20260508011532 20 189 11.3 19.3 0.00 0.00 0.00 37 1007.9
20260508011022 20 188 11.3 19.3 0.00 0.00 0.00 36 1007.9
20260508010523 21 180 9.7 20.9 0.00 0.00 0.00 36 1007.9
20260508010048 21 180 12.9 20.9 0.00 0.00 0.00 35 1007.8
20260508005521 21 184 11.3 19.3 0.00 0.00 0.00 34 1007.8
20260508005023 22 183 11.3 19.3 0.00 0.00 0.00 34 1007.8
20260508004537 22 190 9.7 19.3 0.00 0.00 0.00 33 1007.8
20260508004021 22 173 11.3 19.3 0.00 0.00 0.00 32 1007.8
20260508003520 23 182 9.7 20.9 0.00 0.00 0.00 32 1007.8
20260508003039 23 196 12.9 25.7 0.00 0.00 0.00 31 1007.9
20260508002522 23 205 14.5 27.4 0.00 0.00 0.00 31 1007.9
20260508002021 23 188 11.3 27.4 0.00 0.00 0.00 31 1007.8
20260508001537 23 188 12.9 29.0 0.00 0.00 0.00 31 1007.9
20260508001023 23 169 16.1 29.0 0.00 0.00 0.00 30 1007.9
20260508000529 23 197 11.3 24.1 0.00 0.00 0.00 29 1007.9
20260508000038 23 268 9.7 20.9 0.00 0.00 0.00 29 1007.9
20260507235523 23 178 9.7 24.1 0.00 0.00 0.00 30 1008.1
20260507235020 23 216 12.9 27.4 0.00 0.00 0.00 29 1008.0
20260507234542 24 206 16.1 30.6 0.00 0.00 0.00 29 1008.0
20260507234021 24 202 11.3 30.6 0.00 0.00 0.00 29 1007.9
20260507233520 24 201 16.1 30.6 0.00 0.00 0.00 28 1008.0
20260507233038 24 213 9.7 24.1 0.00 0.00 0.00 30 1008.0
20260507232520 24 240 11.3 24.1 0.00 0.00 0.00 29 1008.1
20260507232020 24 237 12.9 27.4 0.00 0.00 0.00 29 1008.2
20260507231543 24 217 9.7 27.4 0.00 0.00 0.00 29 1008.2
20260507231020 24 194 11.3 27.4 0.00 0.00 0.00 29 1008.2
20260507230522 24 242 11.3 24.1 0.00 0.00 0.00 30 1008.2
20260507230041 25 192 12.9 24.1 0.00 0.00 0.00 30 1008.4
20260507225524 24 225 9.7 29.0 0.00 0.00 0.00 32 1008.5
20260507225023 24 225 12.9 29.0 0.00 0.00 0.00 29 1008.5
20260507224536 24 211 12.9 29.0 0.00 0.00 0.00 30 1008.5
20260507224021 24 219 11.3 29.0 0.00 0.00 0.00 31 1008.7
20260507223523 24 244 12.9 27.4 0.00 0.00 0.00 31 1008.6
20260507223039 24 189 11.3 27.4 0.00 0.00 0.00 30 1008.7
20260507222521 24 241 16.1 37.0 0.00 0.00 0.00 29 1008.7
20260507222020 24 220 16.1 37.0 0.00 0.00 0.00 30 1008.7
20260507221538 24 255 17.7 37.0 0.00 0.00 0.00 29 1008.9
20260507221020 24 238 14.5 25.7 0.00 0.00 0.00 30 1009.0
20260507220520 24 236 12.9 22.5 0.00 0.00 0.00 33 1008.9
20260507220039 23 228 11.3 24.1 0.00 0.00 0.00 31 1009.0
20260507215521 24 254 14.5 24.1 0.00 0.00 0.00 30 1009.1
20260507215021 24 213 12.9 24.1 0.00 0.00 0.00 30 1009.3
20260507214545 24 209 14.5 24.1 0.00 0.00 0.00 30 1009.1
20260507214022 24 200 9.7 24.1 0.00 0.00 0.00 31 1009.1
20260507213523 23 202 14.5 29.0 0.00 0.00 0.00 32 1009.2
20260507213037 23 232 12.9 30.6 0.00 0.00 0.00 30 1009.2
20260507212524 24 248 14.5 30.6 0.00 0.00 0.00 31 1009.5
20260507212023 23 241 14.5 30.6 0.00 0.00 0.00 32 1009.4
20260507211542 23 191 12.9 29.0 0.00 0.00 0.00 32 1009.5
20260507211022 23 219 16.1 32.2 0.00 0.00 0.00 32 1009.6
20260507210523 23 217 12.9 32.2 0.00 0.00 0.00 32 1009.7
20260507210040 23 234 14.5 27.4 0.00 0.00 0.00 31 1009.9
20260507205523 23 218 16.1 30.6 0.00 0.00 0.00 33 1010.0
20260507205022 23 167 16.1 30.6 0.00 0.00 0.00 32 1010.0
20260507204539 23 202 12.9 22.5 0.00 0.00 0.00 34 1010.2
20260507204022 23 233 14.5 27.4 0.00 0.00 0.00 34 1010.1
20260507203523 23 289 12.9 27.4 0.00 0.00 0.00 32 1010.4
20260507203038 23 268 16.1 29.0 0.00 0.00 0.00 33 1010.5
20260507202522 23 260 9.7 29.0 0.00 0.00 0.00 33 1010.6
20260507202023 23 275 16.1 29.0 0.00 0.00 0.00 33 1010.8
20260507201542 23 241 17.7 29.0 0.00 0.00 0.00 34 1011.0
20260507201023 22 248 8.0 29.0 0.00 0.00 0.00 33 1011.0
20260507200523 22 219 12.9 33.8 0.00 0.00 0.00 34 1011.0
20260507200037 22 213 14.5 33.8 0.00 0.00 0.00 32 1011.1
20260507195523 22 229 17.7 33.8 0.00 0.00 0.00 33 1011.2
20260507195023 22 283 14.5 30.6 0.00 0.00 0.00 34 1011.2
20260507194540 22 217 12.9 30.6 0.00 0.00 0.00 33 1011.2
20260507194023 22 227 12.9 30.6 0.00 0.00 0.00 36 1011.4
20260507193523 22 229 14.5 30.6 0.00 0.00 0.00 33 1011.5
20260507193040 22 207 14.5 32.2 0.00 0.00 0.00 36 1011.5
20260507192522 22 244 9.7 32.2 0.00 0.00 0.00 36 1011.6
20260507192022 21 237 9.7 24.1 0.00 0.00 0.00 36 1011.7
20260507191538 21 232 11.3 25.7 0.00 0.00 0.00 36 1011.8
20260507191022 21 227 12.9 33.8 0.00 0.00 0.00 35 1011.8
20260507190523 21 231 12.9 33.8 0.00 0.00 0.00 36 1011.7
20260507190038 21 248 17.7 33.8 0.00 0.00 0.00 38 1011.8
20260507185522 21 207 14.5 33.8 0.00 0.00 0.00 38 1011.9
20260507185022 21 219 19.3 33.8 0.00 0.00 0.00 37 1012.0
20260507184538 21 239 9.7 29.0 0.00 0.00 0.00 39 1012.1
20260507184021 20 234 17.7 32.2 0.00 0.00 0.00 38 1012.1
20260507183524 20 286 19.3 37.0 0.00 0.00 0.00 38 1012.3
20260507183045 20 240 16.1 37.0 0.00 0.00 0.00 37 1012.3
20260507182523 20 269 14.5 32.2 0.00 0.00 0.00 40 1012.4
20260507182022 20 256 19.3 32.2 0.00 0.00 0.00 40 1012.6
20260507181542 20 245 12.9 33.8 0.00 0.00 0.00 39 1012.8
20260507181021 20 233 20.9 33.8 0.00 0.00 0.00 41 1012.8
20260507180521 20 234 19.3 33.8 0.00 0.00 0.00 40 1013.0
20260507180050 20 239 14.5 33.8 0.00 0.00 0.00 44 1013.0
20260507175520 20 200 12.9 29.0 0.00 0.00 0.00 44 1013.1
20260507175020 19 228 14.5 29.0 0.00 0.00 0.00 44 1013.2
20260507174538 20 192 11.3 29.0 0.00 0.00 0.00 43 1013.3
20260507174020 19 257 17.7 29.0 0.00 0.00 0.00 44 1013.2
20260507173520 19 234 14.5 35.4 0.00 0.00 0.00 45 1013.5
20260507173042 18 255 22.5 35.4 0.00 0.00 0.00 46 1013.5
20260507172521 19 259 17.7 33.8 0.00 0.00 0.00 44 1013.6
20260507172022 19 276 17.7 32.2 0.00 0.00 0.00 46 1013.7
20260507171544 18 215 17.7 37.0 0.00 0.00 0.00 46 1013.7
20260507171021 18 244 14.5 37.0 0.00 0.00 0.00 47 1013.8
20260507170523 18 230 17.7 32.2 0.00 0.00 0.00 47 1014.0
20260507170037 18 234 16.1 29.0 0.00 0.00 0.00 47 1014.2
20260507165522 18 198 14.5 32.2 0.00 0.00 0.00 48 1014.1
20260507165021 17 205 16.1 38.6 0.00 0.00 0.00 48 1014.2
20260507164546 17 212 17.7 38.6 0.00 0.00 0.00 48 1014.2
20260507164021 17 220 19.3 38.6 0.00 0.00 0.00 49 1014.3
20260507163525 17 259 19.3 37.0 0.00 0.00 0.00 48 1014.3
20260507163045 17 238 20.9 37.0 0.00 0.00 0.00 48 1014.4
20260507162521 17 181 19.3 32.2 0.00 0.00 0.00 49 1014.6
20260507162021 17 262 16.1 33.8 0.00 0.00 0.00 51 1014.4
20260507161542 16 258 22.5 33.8 0.00 0.00 0.00 50 1014.5
20260507161023 16 231 17.7 33.8 0.00 0.00 0.00 51 1014.5
20260507160521 16 235 17.7 33.8 0.00 0.00 0.00 51 1014.5
20260507160046 16 226 17.7 37.0 0.00 0.00 0.00 52 1014.6
20260507155523 16 213 17.7 37.0 0.00 0.00 0.00 53 1014.6
20260507155020 16 229 20.9 37.0 0.00 0.00 0.00 52 1014.7
20260507154538 16 265 16.1 32.2 0.00 0.00 0.00 55 1014.7
20260507154023 16 224 14.5 30.6 0.00 0.00 0.00 53 1014.8